$DATE,$TIME,DM0600B,DM0602B,DM0604B,DM0614B,DM0616B,DM0618B,DM0624B,DM0628B,DM0630B,DM0634B,DM0606B,DM0608B,DM0610B
12/10/94,00:00:00,0,0,0,0,127,73,191,85,59,0,10,8,8
12/10/94,00:05:00,0,0,0,0,127,73,191,85,57,0,10,8,8
12/10/94,00:10:00,0,0,0,0,127,73,191,84,57,0,11,8,9
12/10/94,00:15:00,0,0,0,0,127,73,191,85,57,0,11,8,8
12/10/94,00:20:00,0,0,0,0,126,72,190,85,61,0,10,8,9
12/10/94,00:25:00,0,0,0,0,125,72,189,85,57,0,10,8,8
12/10/94,00:30:00,0,0,0,0,126,73,191,82,57,0,10,8,8
12/10/94,00:35:00,0,0,0,0,125,73,190,82,57,0,9,7,8
12/10/94,00:40:00,0,0,0,0,125,73,190,82,59,0,9,8,8
12/10/94,00:45:00,0,0,0,0,124,73,188,82,59,0,9,7,8
12/10/94,00:50:00,0,0,0,0,123,72,188,82,59,0,9,7,8
12/10/94,00:55:00,0,0,0,0,123,73,188,82,57,0,9,7,8
12/10/94,01:00:00,0,0,0,0,123,72,187,82,57,0,9,7,8
12/10/94,01:05:00,0,0,0,0,123,73,187,82,57,0,9,7,8
12/10/94,01:10:00,0,0,0,0,123,73,187,82,57,0,10,8,8
12/10/94,01:15:00,0,0,0,0,123,73,187,82,57,0,10,8,9
12/10/94,01:20:00,0,0,0,0,123,72,187,82,59,0,10,8,9
12/10/94,01:25:00,0,0,0,0,122,72,187,82,59,0,10,8,8
12/10/94,01:30:00,0,0,0,0,122,72,186,82,59,0,9,8,8
12/10/94,01:35:00,0,0,0,0,122,72,186,82,59,0,9,8,8
12/10/94,01:40:00,0,0,0,0,121,69,183,82,57,0,9,7,8
12/10/94,01:45:00,0,0,0,0,121,68,180,85,56,0,9,7,8
12/10/94,01:50:00,0,0,0,0,120,62,175,85,56,0,9,7,8
12/10/94,01:55:00,0,0,0,0,119,58,170,85,48,0,9,7,8
12/10/94,02:00:00,0,0,0,0,117,56,166,84,48,0,9,7,8
12/10/94,02:05:00,0,0,0,0,115,58,165,84,50,0,9,8,8
12/10/94,02:10:00,0,0,0,0,113,60,166,84,50,0,9,8,8
12/10/94,02:15:00,0,0,0,0,109,60,162,85,50,0,10,8,8
12/10/94,02:20:00,0,0,0,0,107,60,160,85,48,0,9,8,8
12/10/94,02:25:00,0,0,0,0,104,64,161,83,48,0,9,8,8
12/10/94,02:30:00,0,0,0,0,102,68,163,82,56,0,9,8,8
12/10/94,02:35:00,0,0,0,0,99,68,160,83,56,0,9,8,8
12/10/94,02:40:00,0,0,0,0,98,69,160,83,56,0,9,8,8
12/10/94,02:45:00,0,0,0,0,98,69,160,83,56,0,9,8,8
12/10/94,02:50:00,0,0,0,0,96,69,158,83,62,0,9,7,8
12/10/94,02:55:00,0,0,0,0,98,68,160,82,58,0,9,8,8
12/10/94,03:00:00,0,0,0,0,98,68,159,82,58,0,9,8,8
12/10/94,03:05:00,0,0,0,0,100,68,161,85,56,0,9,8,7
12/10/94,03:10:00,0,0,0,0,98,67,159,82,60,0,8,8,8
12/10/94,03:15:00,0,0,0,0,98,67,158,83,60,0,8,8,7
12/10/94,03:20:00,0,0,0,0,98,66,157,83,60,0,10,8,8
12/10/94,03:25:00,0,0,0,0,97,66,157,80,60,0,10,8,8
12/10/94,03:30:00,0,0,0,0,97,66,156,80,62,0,9,8,9
12/10/94,03:35:00,0,0,0,0,98,65,156,83,62,0,9,8,8
12/10/94,03:40:00,0,0,0,0,95,65,153,83,62,0,9,8,8
12/10/94,03:45:00,0,0,0,0,94,64,152,82,62,0,9,8,8
12/10/94,03:50:00,0,0,0,0,94,64,151,81,60,0,9,8,8
12/10/94,03:55:00,0,0,0,0,94,63,152,80,60,0,9,9,8
12/10/94,04:00:00,0,0,0,0,93,63,150,81,52,0,9,9,8
12/10/94,04:05:00,0,0,0,0,94,62,150,80,52,0,9,8,8
12/10/94,04:10:00,0,0,0,0,94,62,150,80,52,0,9,8,8
12/10/94,04:15:00,0,0,0,0,95,61,150,80,54,0,10,8,8
12/10/94,04:20:00,0,0,0,0,94,61,149,80,54,0,11,8,8
12/10/94,04:25:00,0,0,0,0,94,60,149,80,54,0,11,8,8
12/10/94,04:30:00,0,0,0,0,96,60,150,80,54,0,10,8,9
12/10/94,04:35:00,0,0,0,0,96,59,149,80,52,0,10,8,9
12/10/94,04:40:00,0,0,0,0,96,59,148,80,52,0,10,8,8
12/10/94,04:45:00,0,0,0,0,92,58,145,80,52,0,11,8,8
12/10/94,04:50:00,0,0,0,0,94,57,146,80,52,0,10,8,8
12/10/94,04:55:00,0,0,0,0,91,57,142,80,52,0,11,8,8
12/10/94,05:00:00,0,0,0,0,90,56,140,80,54,0,10,8,8
12/10/94,05:05:00,0,0,0,0,88,56,138,80,54,0,10,8,8
12/10/94,05:10:00,0,0,0,0,86,55,136,81,58,0,10,8,8
12/10/94,05:15:00,0,0,0,0,88,55,137,81,54,0,10,8,7
12/10/94,05:20:00,0,0,0,0,86,54,135,81,52,0,10,8,8
12/10/94,05:25:00,0,0,0,0,87,53,135,81,52,0,12,8,7
12/10/94,05:30:00,0,0,0,0,86,53,133,80,52,0,11,8,8
12/10/94,05:35:00,0,0,0,0,85,52,132,81,52,0,11,8,8
12/10/94,05:40:00,0,0,0,0,87,52,133,80,52,0,10,8,8
12/10/94,05:45:00,0,0,0,0,86,51,131,81,54,0,10,18,9
12/10/94,05:50:00,0,0,0,0,84,50,129,81,54,0,10,18,8
12/10/94,05:55:00,0,0,0,0,84,50,129,81,54,0,10,14,8
12/10/94,06:00:00,0,0,0,0,84,49,127,81,54,0,10,11,8
12/10/94,06:05:00,0,0,0,0,83,48,126,81,52,0,10,10,8
12/10/94,06:10:00,0,0,0,0,82,48,124,81,52,0,9,9,8
12/10/94,06:15:00,0,0,0,0,80,47,122,81,53,0,10,15,8
12/10/94,06:20:00,0,0,0,0,79,46,121,81,52,0,10,22,8
12/10/94,06:25:00,0,0,0,0,79,46,120,81,52,0,10,16,8
12/10/94,06:30:00,0,0,0,0,77,45,118,81,53,0,11,12,8
12/10/94,06:35:00,0,0,0,0,76,44,116,81,53,0,10,11,8
12/10/94,06:40:00,0,0,0,0,75,44,114,81,54,0,19,20,9
12/10/94,06:45:00,0,0,0,0,74,43,112,81,54,0,18,21,9
12/10/94,06:50:00,20,29,43,22,73,42,112,80,54,0,14,15,8
12/10/94,06:55:00,21,28,27,19,72,42,110,79,54,0,13,12,8
12/10/94,07:00:00,49,46,26,20,71,41,108,78,52,0,12,10,8
12/10/94,07:05:00,38,27,28,11,70,40,106,78,52,0,10,9,8
12/10/94,07:10:00,41,56,25,18,69,40,104,78,51,0,6,8,8
12/10/94,07:15:00,38,59,24,14,67,39,103,77,51,0,6,8,8
12/10/94,07:20:00,42,9,20,25,66,39,101,78,52,0,10,8,8
12/10/94,07:25:00,48,13,28,22,65,38,99,78,52,0,10,7,7
12/10/94,07:30:00,42,48,28,20,64,37,97,78,53,0,7,7,7
12/10/94,07:35:00,48,20,28,24,63,37,96,78,54,0,10,7,7
12/10/94,07:40:00,37,36,21,25,62,36,94,78,53,0,9,8,7
12/10/94,07:45:00,40,34,24,23,60,35,92,78,53,0,10,7,8
12/10/94,07:50:00,47,25,26,21,60,35,91,78,52,0,10,7,8
12/10/94,07:55:00,48,28,17,25,58,34,89,79,51,0,10,7,7
12/10/94,08:00:00,46,33,32,22,57,34,88,78,51,0,9,7,7
12/10/94,08:05:00,47,27,26,28,56,33,86,79,52,0,9,6,7
12/10/94,08:10:00,41,34,33,27,55,32,85,79,51,0,9,6,7
12/10/94,08:15:00,44,33,26,26,55,32,83,79,61,0,9,7,7
12/10/94,08:20:00,48,29,34,25,54,31,82,78,53,0,9,6,7
12/10/94,08:25:00,44,31,34,23,52,31,80,78,53,0,9,6,7
12/10/94,08:30:00,39,28,20,9,51,30,79,79,54,0,9,7,7
12/10/94,08:35:00,38,33,33,30,50,30,77,79,52,0,9,7,7
12/10/94,08:40:00,49,26,33,28,49,29,75,79,52,0,9,7,7
12/10/94,08:45:00,41,25,33,23,48,28,74,79,52,0,9,7,7
12/10/94,08:50:00,46,28,36,26,47,28,73,79,52,0,10,7,8
12/10/94,08:55:00,50,27,34,25,46,27,72,79,52,0,10,7,8
12/10/94,09:00:00,30,22,21,12,46,27,70,79,52,0,10,7,8
12/10/94,09:05:00,42,27,27,27,45,26,69,79,52,0,10,7,8
12/10/94,09:10:00,51,31,37,30,44,26,68,79,54,0,9,7,8
12/10/94,09:15:00,48,23,35,31,43,25,67,79,63,0,9,7,8
12/10/94,09:20:00,37,26,24,32,43,25,66,79,53,0,9,7,7
12/10/94,09:25:00,45,32,37,30,42,24,65,79,53,0,8,6,7
12/10/94,09:30:00,45,34,32,27,42,24,64,79,52,0,9,7,8
12/10/94,09:35:00,46,36,39,33,41,24,63,79,52,0,9,7,7
12/10/94,09:40:00,47,30,37,33,40,23,62,79,52,0,9,6,7
12/10/94,09:45:00,37,32,34,32,39,23,60,79,52,0,9,6,7
12/10/94,09:50:00,45,33,33,33,39,22,59,79,52,0,9,6,7
12/10/94,09:55:00,37,32,37,32,38,22,58,80,54,0,9,6,8
12/10/94,10:00:00,45,29,34,34,37,22,57,80,54,0,9,6,8
12/10/94,10:05:00,41,33,29,33,36,21,56,80,54,0,9,6,7
12/10/94,10:10:00,45,37,34,31,36,21,55,79,54,0,8,6,7
12/10/94,10:15:00,47,26,36,35,35,20,54,79,52,0,9,6,7
12/10/94,10:20:00,41,29,32,31,35,20,53,79,52,0,9,6,7
12/10/94,10:25:00,43,33,30,33,34,20,52,79,52,0,8,6,7
12/10/94,10:30:00,40,25,34,37,34,20,52,79,52,0,8,6,7
12/10/94,10:35:00,42,33,39,36,33,19,51,79,52,0,8,6,7
12/10/94,10:40:00,39,34,40,33,33,19,50,79,52,0,8,6,7
12/10/94,10:45:00,47,32,32,35,32,19,49,79,54,0,8,6,6
12/10/94,10:50:00,44,32,34,37,32,18,49,79,54,0,8,6,7
12/10/94,10:55:00,54,31,39,35,31,18,48,79,54,0,9,6,7
12/10/94,11:00:00,53,32,43,34,31,18,47,79,52,0,10,6,8
12/10/94,11:05:00,50,28,40,33,30,18,46,79,52,0,10,6,7
12/10/94,11:10:00,55,33,41,32,30,17,46,79,52,0,9,6,7
12/10/94,11:15:00,53,34,45,36,29,17,45,79,52,0,9,6,7
12/10/94,11:20:00,55,26,41,34,29,17,45,79,52,0,9,7,7
12/10/94,11:25:00,55,33,42,34,28,17,44,79,52,0,9,7,6
12/10/94,11:30:00,54,33,44,34,28,17,44,79,54,0,9,6,6
12/10/94,11:35:00,47,24,46,37,28,16,43,79,54,0,9,6,7
12/10/94,11:40:00,52,32,46,36,28,16,43,79,54,0,9,6,7
12/10/94,11:45:00,52,29,42,32,27,16,42,79,54,0,9,6,6
12/10/94,11:50:00,53,25,44,26,27,16,42,79,52,0,9,6,7
12/10/94,11:55:00,52,29,42,35,27,16,42,79,52,0,9,6,7
12/10/94,12:00:00,53,32,44,32,27,16,41,79,52,0,10,6,6
12/10/94,12:05:00,54,29,35,33,27,16,41,79,52,0,10,6,7
12/10/94,12:10:00,55,28,38,36,27,16,41,79,52,0,10,6,7
12/10/94,12:15:00,52,33,38,37,26,15,41,79,54,0,9,6,7
12/10/94,12:20:00,57,32,37,34,26,15,41,79,54,0,9,6,7
12/10/94,12:25:00,56,29,37,33,26,15,40,79,54,0,9,6,7
12/10/94,12:30:00,58,31,38,38,26,15,40,79,54,0,9,6,7
12/10/94,12:35:00,45,32,38,39,26,15,40,79,52,0,9,6,7
12/10/94,12:40:00,52,31,41,36,26,15,41,79,52,0,9,6,7
12/10/94,12:45:00,48,31,40,39,26,15,40,79,52,0,9,6,6
12/10/94,12:50:00,56,33,37,37,26,15,40,79,52,0,9,6,6
12/10/94,12:55:00,49,25,35,37,26,15,40,80,52,0,9,6,7
12/10/94,13:00:00,53,32,46,37,26,16,41,79,54,0,9,6,7
12/10/94,13:05:00,47,29,29,39,26,16,41,79,54,0,9,6,7
12/10/94,13:10:00,53,28,38,34,26,16,41,79,54,0,9,6,7
12/10/94,13:15:00,51,30,37,38,27,16,42,79,54,0,9,7,8
12/10/94,13:20:00,54,34,41,36,26,16,41,79,52,0,8,6,7
12/10/94,13:25:00,57,32,31,33,26,16,41,79,52,0,9,6,7
12/10/94,13:30:00,51,30,41,39,27,16,42,79,52,0,9,6,7
12/10/94,13:35:00,54,31,41,34,27,16,42,79,52,0,9,6,7
12/10/94,13:40:00,52,33,38,37,24,14,38,79,52,0,9,6,7
12/10/94,13:45:00,49,30,38,36,29,17,44,79,52,0,8,6,7
12/10/94,13:50:00,54,35,45,38,16,10,31,80,54,0,9,6,7
12/10/94,13:55:00,52,30,38,35,31,18,48,79,54,0,9,6,7
12/10/94,14:00:00,51,27,42,33,34,20,52,79,54,0,9,6,7
12/10/94,14:05:00,50,35,44,25,25,15,40,80,53,0,9,7,7
12/10/94,14:10:00,55,29,36,33,19,11,29,80,52,0,9,7,7
12/10/94,14:15:00,57,31,41,39,18,11,29,80,52,0,9,7,8
12/10/94,14:20:00,55,32,35,35,19,11,30,80,52,0,8,7,8
12/10/94,14:25:00,58,31,39,38,18,11,28,79,52,0,8,7,8
12/10/94,14:30:00,49,29,39,40,17,10,27,79,52,0,8,7,7
12/10/94,14:35:00,42,33,40,40,17,10,27,80,54,0,8,7,7
12/10/94,14:40:00,57,33,44,42,17,10,27,80,54,0,8,7,7
12/10/94,14:45:00,60,36,44,42,17,10,27,80,54,0,8,7,7
12/10/94,14:50:00,58,29,47,40,17,10,27,80,54,0,8,6,7
12/10/94,14:55:00,52,33,37,37,17,10,27,80,52,0,8,7,7
12/10/94,15:00:00,55,32,41,44,18,11,28,80,52,0,7,7,7
12/10/94,15:05:00,50,29,36,42,18,11,28,80,52,0,8,7,7
12/10/94,15:10:00,58,33,38,39,18,11,29,80,52,0,8,7,7
12/10/94,15:15:00,51,35,34,41,20,12,31,80,52,0,9,7,7
12/10/94,15:20:00,48,29,34,40,21,12,33,80,54,0,9,6,8
12/10/94,15:25:00,52,36,37,36,22,13,34,80,54,0,9,6,8
12/10/94,15:30:00,50,26,39,38,23,14,36,80,54,0,9,6,7
12/10/94,15:35:00,42,25,35,34,23,13,35,80,54,0,9,6,7
12/10/94,15:40:00,45,30,32,38,23,13,35,80,52,0,8,6,7
12/10/94,15:45:00,60,31,40,40,21,13,33,80,52,0,9,6,7
12/10/94,15:50:00,46,37,38,36,21,13,34,80,52,0,8,6,7
12/10/94,15:55:00,40,38,32,35,22,13,34,80,52,0,8,6,7
12/10/94,16:00:00,48,37,35,37,22,13,34,80,52,0,8,7,7
12/10/94,16:05:00,45,31,38,36,23,13,36,80,52,0,8,7,7
12/10/94,16:10:00,40,25,36,36,24,14,37,80,54,0,8,6,7
12/10/94,16:15:00,42,27,34,33,24,14,38,80,54,0,9,6,7
12/10/94,16:20:00,46,48,37,39,23,14,36,80,54,0,9,6,7
12/10/94,16:25:00,43,35,41,30,23,14,36,80,54,0,9,6,8
12/10/94,16:30:00,44,32,36,32,24,14,37,80,52,0,8,6,8
12/10/94,16:35:00,41,44,40,40,25,15,39,80,52,0,8,6,7
12/10/94,16:40:00,45,31,30,41,25,15,39,80,63,0,8,6,7
12/10/94,16:45:00,51,35,39,41,26,15,40,80,52,0,8,6,7
12/10/94,16:50:00,37,38,37,33,27,16,43,80,52,0,8,6,7
12/10/94,16:55:00,50,27,29,38,27,16,42,80,54,0,8,7,7
12/10/94,17:00:00,39,23,33,36,28,16,43,80,54,0,8,7,7
12/10/94,17:05:00,45,46,34,33,28,17,44,80,54,0,9,6,7
12/10/94,17:10:00,41,36,44,38,29,17,44,80,52,0,8,6,7
12/10/94,17:15:00,47,33,32,34,29,17,45,80,52,0,9,6,7
12/10/94,17:20:00,46,44,29,33,31,18,48,80,52,0,9,6,7
12/10/94,17:25:00,42,35,34,40,32,18,49,80,52,0,9,6,7
12/10/94,17:30:00,41,27,37,33,33,19,50,80,52,0,8,6,8
12/10/94,17:35:00,34,36,35,24,34,20,53,80,52,0,8,6,8
12/10/94,17:40:00,52,35,30,37,35,20,54,80,52,0,8,6,8
12/10/94,17:45:00,39,32,32,33,36,21,56,79,54,0,8,6,7
12/10/94,17:50:00,41,46,37,36,37,21,57,79,54,0,8,6,7
12/10/94,17:55:00,42,35,30,34,37,21,57,79,54,0,8,6,7
12/10/94,18:00:00,33,38,35,34,35,20,53,79,52,0,8,6,7
12/10/94,18:05:00,45,39,35,33,34,20,52,79,52,0,8,6,7
12/10/94,18:10:00,39,34,34,30,35,21,55,79,52,0,8,6,7
12/10/94,18:15:00,40,32,39,32,34,20,52,80,52,0,8,6,7
12/10/94,18:20:00,38,28,32,33,33,19,51,80,56,0,9,6,7
12/10/94,18:25:00,36,32,33,31,33,19,51,80,52,0,9,6,7
12/10/94,18:30:00,34,23,34,33,35,20,54,80,54,0,9,6,7
12/10/94,18:35:00,33,31,30,30,36,21,55,79,54,0,8,6,7
12/10/94,18:40:00,41,42,37,27,35,20,54,79,54,0,8,6,8
12/10/94,18:45:00,41,33,35,32,35,20,54,79,52,0,8,6,7
12/10/94,18:50:00,51,30,36,35,36,21,56,79,52,0,8,6,7
12/10/94,18:55:00,36,37,26,29,37,21,57,79,52,0,8,6,7
12/10/94,19:00:00,37,31,30,32,37,22,57,79,52,0,8,6,7
12/10/94,19:05:00,40,36,23,32,37,22,58,79,52,0,8,6,7
12/10/94,19:10:00,29,34,29,34,38,22,58,79,52,0,8,6,7
12/10/94,19:15:00,37,43,38,33,38,22,59,79,54,0,8,6,7
12/10/94,19:20:00,33,27,20,30,39,23,60,80,54,0,8,6,7
12/10/94,19:25:00,37,26,36,30,40,23,62,80,54,0,8,6,7
12/10/94,19:30:00,26,40,31,36,41,24,63,80,52,0,8,5,7
12/10/94,19:35:00,36,30,31,28,43,25,65,80,52,0,8,6,7
12/10/94,19:40:00,29,19,29,27,43,25,67,80,52,0,8,6,7
12/10/94,19:45:00,25,28,25,21,46,27,70,80,52,0,7,6,7
12/10/94,19:50:00,45,35,32,33,50,29,75,79,52,0,7,6,7
12/10/94,19:55:00,46,28,25,27,51,30,78,79,52,0,7,6,7
12/10/94,20:00:00,33,43,33,22,51,29,78,79,52,0,7,6,7
12/10/94,20:05:00,40,29,23,26,48,27,73,79,54,0,7,6,6
12/10/94,20:10:00,48,30,29,30,43,25,66,80,54,0,7,6,6
12/10/94,20:15:00,48,40,30,25,41,24,63,80,54,0,7,6,6
12/10/94,20:20:00,40,21,29,32,42,24,65,80,52,0,7,6,6
12/10/94,20:25:00,40,33,29,27,44,25,67,80,52,0,7,6,6
12/10/94,20:30:00,34,38,25,26,45,26,70,80,52,0,7,6,6
12/10/94,20:35:00,37,30,35,29,47,27,72,80,52,0,7,6,6
12/10/94,20:40:00,41,33,26,30,49,28,74,80,52,0,7,6,6
12/10/94,20:45:00,34,36,23,23,50,29,77,80,52,0,7,6,7
12/10/94,20:50:00,45,33,25,27,52,30,80,79,52,0,7,6,7
12/10/94,20:55:00,49,42,23,25,53,31,81,79,54,0,7,6,7
12/10/94,21:00:00,21,33,26,27,54,31,82,79,54,0,7,6,7
12/10/94,21:05:00,36,35,26,25,54,31,83,79,54,0,7,6,7
12/10/94,21:10:00,32,43,28,33,54,31,82,79,52,0,7,6,6
12/10/94,21:15:00,27,33,28,25,54,31,82,79,52,0,7,6,6
12/10/94,21:20:00,49,47,27,28,56,32,86,79,52,0,7,6,6
12/10/94,21:25:00,44,38,24,27,59,34,90,79,52,0,7,6,6
12/10/94,21:30:00,35,28,27,27,62,36,95,79,52,0,8,6,6
12/10/94,21:35:00,36,26,22,21,63,36,95,79,54,0,8,6,6
12/10/94,21:40:00,44,37,16,21,65,37,99,79,54,0,8,6,6
12/10/94,21:45:00,30,31,25,28,66,38,100,79,54,0,8,6,6
12/10/94,21:50:00,36,48,22,24,66,38,99,79,54,0,8,6,7
12/10/94,21:55:00,40,40,19,22,67,38,102,79,52,0,8,6,8
12/10/94,22:00:00,30,31,22,23,68,39,102,79,52,0,8,6,7
12/10/94,22:05:00,25,37,26,23,69,40,105,79,52,0,8,6,7
12/10/94,22:10:00,30,32,18,21,73,42,110,78,52,0,8,6,7
12/10/94,22:15:00,33,35,23,17,71,41,108,79,52,0,8,6,7
12/10/94,22:20:00,28,39,22,23,71,41,108,79,54,0,8,6,7
12/10/94,22:25:00,29,34,27,21,71,41,108,79,54,0,7,6,7
12/10/94,22:30:00,36,26,24,22,72,41,109,79,54,0,8,6,7
12/10/94,22:35:00,28,30,20,22,70,40,106,79,52,0,9,6,7
12/10/94,22:40:00,42,34,22,20,71,41,108,79,52,0,8,6,7
12/10/94,22:45:00,31,32,22,22,69,40,105,79,52,0,8,6,7
12/10/94,22:50:00,27,26,9,22,68,39,102,79,52,0,8,6,7
12/10/94,22:55:00,42,25,26,20,69,40,105,79,52,0,8,6,8
12/10/94,23:00:00,36,38,22,22,70,40,106,79,52,0,7,6,8
12/10/94,23:05:00,28,42,21,22,74,42,112,79,54,0,7,6,7
12/10/94,23:10:00,29,39,21,21,73,42,110,78,54,0,8,6,7
12/10/94,23:15:00,22,28,20,19,73,42,111,79,54,0,8,6,7
12/10/94,23:20:00,35,27,25,17,73,42,111,79,52,0,7,7,7
12/10/94,23:25:00,29,33,22,19,71,41,107,79,52,0,7,7,7
12/10/94,23:30:00,40,34,21,23,70,40,106,79,52,0,7,6,7
12/10/94,23:35:00,27,30,21,22,70,40,106,79,52,0,8,6,7
12/10/94,23:40:00,24,30,21,21,69,40,105,79,52,0,8,6,7
12/10/94,23:45:00,28,33,19,18,69,39,105,79,52,0,8,6,7
12/10/94,23:50:00,30,35,22,20,68,39,103,79,54,0,7,6,7
12/10/94,23:55:00,36,26,23,23,69,40,105,79,54,0,7,6,7
12/11/94,00:00:00,23,32,19,15,73,42,111,79,54,0,7,6,8
